Location: Unspecified
(0.0000°N, 0.0000°E)
Time: 16:03:16
(UTC+02:00)

Ariane H10 - Visible Passes

Search period start: 21 September 2017 00:00
Search period end: 01 October 2017 00:00
Orbit: 389 x 35089 km, 4.1° (Epoch: 20 September)

Date Brightness Start Highest point End Pass type
(mag) Time Alt. Az. Time Alt. Az. Time Alt. Az.
21 Sep 10.2 21:51:27 12° E 01:31:41 33° E 03:04:19 10° E visible
23 Sep 7.5 01:13:46 10° W 02:59:28 55° W 10:52:16 10° E visible
23 Sep 8.5 21:37:12 10° W 22:00:30 83° S 07:24:23 10° E visible
24 Sep 7.9 18:10:15 10° W 02:02:28 43° E 03:42:42 10° E visible
26 Sep 6.9 01:49:02 10° W 03:30:44 45° W 11:22:20 10° E visible
26 Sep 8.9 22:08:04 10° W 22:43:17 84° S 07:55:16 10° E visible
27 Sep 8.6 18:40:14 10° W 02:33:43 53° E 04:18:09 10° E visible
29 Sep 6.4 02:26:41 10° W 04:01:21 34° W 11:52:14 10° E visible
29 Sep 9.0 22:39:09 10° W 23:45:16 85° S 08:25:46 10° E visible
